Weather History for KYKN - February, 2013

Change the Weather History Date:

Saturday, February 9, 2013

  Actual Average Record
Temperature  
Mean Temperature 40 °F -  
Max Temperature 51 °F 29 °F 62 °F (1954)
Min Temperature 28 °F 7 °F -18 °F (1979)
Degree Days  
Heating Degree Days 26    
Moisture  
Dew Point 30 °F    
Average Humidity 74    
Maximum Humidity 93    
Minimum Humidity 44    
Precipitation  
Precipitation 0.00 in - - ()
Sea Level Pressure  
Sea Level Pressure 29.82 in    
Wind  
Wind Speed 14 mph (SE)    
Max Wind Speed 18 mph    
Max Gust Speed 25 mph    
Visibility 8 miles    
Events      
Averages and records for this station are not official NWS values.
T = Trace of Precipitation, MM = Missing Value Source: NWS Daily Summary

Daily Weather History Graph

Daily Weather History Graph

Search for Another Location

Airport or City:

Trip Planner

Search our weather history database for the weather conditions in past years. The results will help you decide how hot, cold, wet, or windy it might be!

Date:

Astronomy

Feb. 09, 2013 Rise Set
Actual Time 7:34 AM CST 5:53 PM CST
Civil Twilight 7:05 AM CST 6:22 PM CST
Nautical Twilight 6:31 AM CST 6:56 PM CST
Astronomical Twilight 5:58 AM CST 7:29 PM CST
Moon 6:46 AM CST (2/9) 5:38 PM CST (2/9)
Length of Visible Light 11h 17m
Length of Day
10h 18m
Waning Crescent, 0% of the Moon is Illuminated
Feb 9
Waning Crescent
Feb 10
New
Feb 17
First Quarter
Feb 25
Full
Mar 4
Last Quarter

Hourly Weather History & Observations

Time (CST) Temp. Windchill Dew Point Humidity Pressure Visibility Wind Dir Wind Speed Gust Speed Precip Events Conditions
12:15 AM 28.4 °F 17.5 °F 24.8 °F 86% 30.01 in 8.0 mi ESE 13.8 mph 19.6 mph N/A   Clear
12:35 AM 28.4 °F 18.0 °F 24.8 °F 86% 30.01 in 8.0 mi ESE 12.7 mph - N/A   Clear
12:55 AM 28.4 °F 17.5 °F 24.8 °F 86% 30.00 in 8.0 mi SE 13.8 mph 19.6 mph N/A   Clear
1:15 AM 28.4 °F 19.1 °F 24.8 °F 86% 30.00 in 8.0 mi SE 10.4 mph - N/A   Clear
1:35 AM 28.4 °F 19.1 °F 24.8 °F 86% 30.00 in 8.0 mi SE 10.4 mph - N/A   Clear
1:55 AM 28.4 °F 18.5 °F 24.8 °F 86% 29.98 in 8.0 mi SE 11.5 mph - N/A   Clear
2:15 AM 28.4 °F 17.5 °F 24.8 °F 86% 29.98 in 7.0 mi SE 13.8 mph - N/A   Clear
2:35 AM 28.4 °F 19.1 °F 26.6 °F 93% 29.98 in 8.0 mi SE 10.4 mph - N/A   Clear
2:55 AM 28.4 °F 17.5 °F 24.8 °F 86% 29.96 in 8.0 mi SSE 13.8 mph - N/A   Clear
3:15 AM 28.4 °F 18.0 °F 24.8 °F 86% 29.96 in 7.0 mi SE 12.7 mph - N/A   Clear
3:35 AM 28.4 °F 18.0 °F 24.8 °F 86% 29.95 in 5.0 mi SE 12.7 mph - N/A   Clear
3:55 AM 28.4 °F 17.5 °F 24.8 °F 86% 29.94 in 5.0 mi SE 13.8 mph - N/A   Clear
4:15 AM 28.4 °F 17.0 °F 24.8 °F 86% 29.93 in 5.0 mi SE 15.0 mph 19.6 mph N/A   Clear
4:35 AM 28.4 °F 17.5 °F 26.6 °F 93% 29.93 in 5.0 mi SE 13.8 mph - N/A   Clear
4:55 AM 28.4 °F 16.2 °F 26.6 °F 93% 29.93 in 5.0 mi SSE 17.3 mph - N/A   Partly Cloudy
5:15 AM 30.2 °F 18.5 °F 26.6 °F 86% 29.93 in 5.0 mi SSE 17.3 mph - N/A   Mostly Cloudy
5:35 AM 30.2 °F 19.3 °F 28.4 °F 93% 29.93 in 5.0 mi SSE 15.0 mph 19.6 mph N/A   Overcast
5:55 AM 30.2 °F 20.2 °F 28.4 °F 93% 29.93 in 5.0 mi SE 12.7 mph - N/A   Overcast
6:15 AM 30.2 °F 20.2 °F 28.4 °F 93% 29.93 in 5.0 mi SSE 12.7 mph - N/A   Overcast
6:35 AM 32.0 °F 21.2 °F 28.4 °F 87% 29.92 in 5.0 mi SSE 16.1 mph - N/A   Overcast
6:55 AM 32.0 °F 22.1 °F 28.4 °F 87% 29.93 in 5.0 mi SSE 13.8 mph - N/A   Overcast
7:15 AM 32.0 °F 23.0 °F 28.4 °F 87% 29.93 in 5.0 mi SSE 11.5 mph - N/A   Overcast
7:35 AM 32.0 °F 23.0 °F 28.4 °F 87% 29.92 in 5.0 mi SSE 11.5 mph - N/A   Overcast
7:55 AM 32.0 °F 23.0 °F 28.4 °F 87% 29.92 in 5.0 mi SE 11.5 mph 17.3 mph N/A   Overcast
8:15 AM 33.8 °F 24.8 °F 28.4 °F 81% 29.92 in 4.0 mi SSE 12.7 mph - N/A   Overcast
8:35 AM 33.8 °F 24.8 °F 28.4 °F 81% 29.92 in 5.0 mi SSE 12.7 mph - N/A   Overcast
8:55 AM 33.8 °F 24.8 °F 28.4 °F 81% 29.92 in 5.0 mi SSE 12.7 mph - N/A   Overcast
9:15 AM 33.8 °F 23.9 °F 28.4 °F 81% 29.92 in 5.0 mi SSE 15.0 mph 20.7 mph N/A   Overcast
9:35 AM 33.8 °F 23.5 °F 30.2 °F 87% 29.91 in 5.0 mi SSE 16.1 mph - N/A   Overcast
9:55 AM 35.6 °F 25.5 °F 30.2 °F 81% 29.91 in 6.0 mi SSE 17.3 mph - N/A   Overcast
10:15 AM 35.6 °F 26.2 °F 30.2 °F 81% 29.90 in 7.0 mi SSE 15.0 mph 21.9 mph N/A   Overcast
10:35 AM 35.6 °F 25.2 °F 30.2 °F 81% 29.90 in 7.0 mi SSE 18.4 mph 21.9 mph N/A   Overcast
10:55 AM 37.4 °F 28.2 °F 28.4 °F 70% 29.89 in 8.0 mi SSE 16.1 mph 20.7 mph N/A   Mostly Cloudy
11:15 AM 37.4 °F 28.2 °F 30.2 °F 75% 29.88 in 8.0 mi SSE 16.1 mph - N/A   Scattered Clouds
11:35 AM 39.2 °F 30.5 °F 30.2 °F 70% 29.87 in 9.0 mi SSE 16.1 mph 20.7 mph N/A   Mostly Cloudy
11:55 AM 42.8 °F 35.1 °F 30.2 °F 61% 29.86 in 10.0 mi South 16.1 mph 25.3 mph N/A   Scattered Clouds
12:15 PM 44.6 °F 37.4 °F 32.0 °F 61% 29.84 in 10.0 mi South 16.1 mph 20.7 mph N/A   Scattered Clouds
12:35 PM 44.6 °F 37.2 °F 30.2 °F 57% 29.82 in 10.0 mi South 17.3 mph 24.2 mph N/A   Partly Cloudy
12:55 PM 46.4 °F 39.8 °F 30.2 °F 53% 29.81 in 10.0 mi South 16.1 mph 24.2 mph N/A   Clear
1:15 PM 46.4 °F 39.5 °F 30.2 °F 53% 29.79 in 10.0 mi South 17.3 mph 24.2 mph N/A   Clear
1:35 PM 48.2 °F - 30.2 °F 50% 29.78 in 10.0 mi SSE 13.8 mph 24.2 mph N/A   Clear
1:55 PM 48.2 °F - 32.0 °F 54% 29.76 in 10.0 mi SSE 16.1 mph 20.7 mph N/A   Clear
2:15 PM 50.0 °F - 32.0 °F 50% 29.75 in 10.0 mi South 13.8 mph - N/A   Clear
2:35 PM 51.8 °F - 30.2 °F 44% 29.74 in 10.0 mi SSE 15.0 mph - N/A   Clear
2:55 PM 51.8 °F - 32.0 °F 47% 29.73 in 10.0 mi SSE 13.8 mph - N/A   Clear
3:15 PM 51.8 °F - 32.0 °F 47% 29.73 in 10.0 mi South 16.1 mph 20.7 mph N/A   Clear
3:35 PM 51.8 °F - 32.0 °F 47% 29.72 in 10.0 mi SSE 18.4 mph 21.9 mph N/A   Clear
3:55 PM 51.8 °F - 30.2 °F 44% 29.71 in 10.0 mi SSE 16.1 mph 21.9 mph N/A   Clear
4:15 PM 51.8 °F - 32.0 °F 47% 29.69 in 10.0 mi SSE 12.7 mph - N/A   Clear
4:35 PM 51.8 °F - 32.0 °F 47% 29.69 in 10.0 mi SSE 12.7 mph - N/A   Clear
4:55 PM 48.2 °F - 32.0 °F 54% 29.69 in 10.0 mi SE 12.7 mph 16.1 mph N/A   Clear
5:15 PM 48.2 °F - 33.8 °F 58% 29.69 in 10.0 mi SSE 13.8 mph - N/A   Scattered Clouds
5:35 PM 46.4 °F 39.8 °F 33.8 °F 62% 29.70 in 10.0 mi SE 16.1 mph 21.9 mph N/A   Scattered Clouds
5:55 PM 46.4 °F 39.2 °F 33.8 °F 62% 29.69 in 10.0 mi SE 18.4 mph - N/A   Scattered Clouds
6:15 PM 44.6 °F 37.4 °F 33.8 °F 66% 29.69 in 10.0 mi SE 16.1 mph - N/A   Mostly Cloudy
6:35 PM 44.6 °F 37.8 °F 33.8 °F 66% 29.69 in 10.0 mi SE 15.0 mph 18.4 mph N/A   Overcast
6:55 PM 44.6 °F 39.2 °F 33.8 °F 66% 29.70 in 10.0 mi ESE 10.4 mph - N/A   Mostly Cloudy
7:35 PM 42.8 °F 37.5 °F 35.6 °F 76% 29.69 in 10.0 mi ESE 9.2 mph - N/A   Mostly Cloudy
7:55 PM 42.8 °F 36.6 °F 35.6 °F 76% 29.69 in 10.0 mi ESE 11.5 mph 18.4 mph N/A   Mostly Cloudy
8:15 PM 42.8 °F 36.2 °F 35.6 °F 76% 29.69 in 10.0 mi ESE 12.7 mph - N/A   Mostly Cloudy
8:35 PM 42.8 °F 35.4 °F 35.6 °F 76% 29.68 in 10.0 mi ESE 15.0 mph - N/A   Overcast
8:55 PM 42.8 °F 36.2 °F 35.6 °F 76% 29.68 in 10.0 mi ESE 12.7 mph - N/A   Mostly Cloudy
9:15 PM 41.0 °F 33.9 °F 35.6 °F 81% 29.68 in 10.0 mi ESE 12.7 mph - N/A   Mostly Cloudy
9:35 PM 41.0 °F 33.9 °F 35.6 °F 81% 29.67 in 10.0 mi ESE 12.7 mph - N/A   Overcast
9:55 PM 41.0 °F 32.2 °F 33.8 °F 76% 29.66 in 10.0 mi ESE 18.4 mph 24.2 mph N/A   Overcast
10:15 PM 41.0 °F 33.1 °F 33.8 °F 76% 29.65 in 10.0 mi SE 15.0 mph 20.7 mph N/A   Overcast
10:35 PM 39.2 °F 31.2 °F 33.8 °F 81% 29.64 in 10.0 mi SE 13.8 mph - N/A   Overcast
10:55 PM 39.2 °F 31.2 °F 33.8 °F 81% 29.63 in 10.0 mi SE 13.8 mph 19.6 mph N/A   Overcast
11:15 PM 39.2 °F 30.2 °F 33.8 °F 81% 29.64 in 10.0 mi SE 17.3 mph - N/A   Overcast
11:35 PM 39.2 °F 29.8 °F 32.0 °F 75% 29.63 in 10.0 mi SE 18.4 mph - N/A   Overcast
11:55 PM 39.2 °F 30.2 °F 32.0 °F 75% 29.63 in 10.0 mi SE 17.3 mph - N/A   Overcast